GFSSW_250_rhum_003.txt.gz
RH
18 28 46 49 45 35 43 46 43 32 22 21 20 25 20 19 22 30 36 37 39 38 47 43 45 46 58 57 47 43 53 50 42 57 79 100 100 100 100 100 100 100 100 98 92
23 33 46 63 61 50 53 54 50 30 27 30 30 26 21 21 26 35 41 53 58 42 45 50 42 39 41 54 59 65 76 74 50 99 100 100 100 100 100 100 100 100 100 100 100
23 38 76 81 66 58 52 49 37 28 24 21 20 18 20 21 28 39 47 53 63 53 52 58 51 63 70 64 75 74 83 100 100 98 100 100 100 100 100 100 100 100 100 100 100
36 76 77 71 68 56 42 33 23 19 16 15 16 18 22 22 32 41 51 66 53 48 51 54 65 66 78 72 88 94 90 100 100 99 98 100 100 100 100 100 100 100 100 100 100
40 71 70 70 56 38 26 18 14 13 14 13 15 18 19 25 38 48 55 60 59 51 53 50 54 86 95 96 99 99 100 100 96 71 68 88 90 100 100 100 100 100 96 100 100
52 79 69 66 39 21 14 12 14 14 12 13 15 19 25 29 34 40 46 57 59 58 70 73 79 97 100 98 96 91 99 100 99 92 100 100 100 100 100 100 100 100 100 100 98
55 75 67 45 20 16 12 14 16 16 15 16 19 20 26 32 40 48 60 67 73 77 94 84 77 79 82 97 96 80 80 96 100 92 75 58 52 79 100 100 100 100 100 100 100
64 67 55 25 15 14 15 18 18 18 17 16 17 22 43 49 55 60 60 58 54 70 80 70 58 56 55 72 76 80 76 74 77 83 86 77 86 94 88 100 100 100 100 100 97
58 57 31 15 14 15 17 16 16 18 18 21 22 25 32 40 41 43 44 44 37 41 47 44 39 33 40 46 58 57 54 64 63 58 64 61 56 69 84 89 84 69 66 76 99
54 31 18 13 15 17 15 14 18 18 20 19 18 18 19 21 23 24 26 28 30 31 27 21 14 11 9 9 7 9 19 30 48 48 42 44 43 39 32 24 24 28 36 36 34
35 18 14 13 15 15 16 15 16 15 16 17 17 16 15 14 13 13 16 13 12 10 9 7 7 7 20 23 22 24 26 24 18 16 10 8 18 24 22 31 46 57 68 76 73
21 16 13 15 16 16 14 13 14 15 15 15 13 13 13 14 12 9 8 6 7 8 14 17 17 18 16 11 11 11 10 11 9 15 30 38 32 62 75 82 89 89 82 77 67
16 16 15 16 13 14 14 15 14 14 14 12 11 12 12 15 17 16 15 15 15 18 17 15 16 16 21 27 27 33 32 38 67 82 97 99 96 86 78 71 61 55 51 50 48
16 16 14 16 15 16 17 21 24 23 19 24 25 32 44 41 40 34 37 44 46 47 43 42 52 62 63 77 89 94 92 84 85 81 75 65 53 49 46 42 36 32 30 26 24
12 12 15 18 18 19 43 55 56 48 38 51 55 52 70 61 65 71 71 68 65 69 68 63 59 49 58 67 68 65 56 39 26 23 19 18 19 19 19 18 19 20 18 18 19
15 25 28 34 34 43 55 62 61 59 58 64 60 64 61 54 59 62 47 28 23 20 20 20 20 24 19 19 20 19 19 19 18 18 19 22 23 28 29 32 33 34 36 32 31
46 70 58 58 44 51 66 72 67 63 72 64 62 49 34 27 28 26 21 20 18 20 19 19 21 22 22 23 23 22 21 21 22 25 24 25 28 34 42 46 53 59 58 54 52
83 99 78 60 56 76 84 78 69 64 58 40 27 25 28 25 24 27 33 32 35 32 27 28 31 30 27 23 22 23 35 37 47 54 52 49 49 47 45 46 47 49 49 55 49
78 78 75 70 80 92 87 80 72 64 31 26 31 28 26 33 43 46 44 39 40 35 31 29 31 38 62 74 72 62 54 51 50 50 50 47 41 35 33 35 38 37 44 54 53
82 77 95 95 89 79 80 71 63 31 27 35 34 28 31 45 51 50 37 38 40 42 54 73 77 68 53 50 50 48 47 48 48 53 51 51 50 47 43 43 43 44 43 42 43
76 96 98 82 79 76 77 67 49 38 34 30 29 33 44 52 57 53 38 48 58 71 67 60 52 51 51 48 48 48 55 57 54 53 49 45 42 42 47 49 49 46 42 40 35
91 98 83 84 81 61 59 65 43 38 33 30 34 41 48 51 56 50 59 70 68 69 61 56 58 62 60 62 58 60 62 58 55 49 50 49 48 46 43 41 39 38 36 32 32
99 94 81 100 68 58 54 50 44 39 34 34 41 52 59 58 61 60 69 71 71 63 58 59 67 70 68 63 58 62 64 63 60 54 43 44 47 44 41 39 39 40 38 39 39
92 81 88 98 73 52 47 53 50 46 41 41 56 67 70 73 69 77 84 73 70 66 67 70 71 72 67 61 63 68 68 58 52 49 50 50 47 41 40 42 45 46 48 48 48
97 91 98 94 81 72 65 63 53 54 47 55 68 75 77 78 77 80 74 77 77 81 80 77 75 67 56 55 56 58 58 53 57 64 58 49 50 50 57 57 50 48 51 54 57
94 100 92 93 83 73 75 62 53 55 64 70 63 66 73 68 68 63 68 77 80 84 83 70 56 54 56 53 51 55 55 52 67 63 52 54 58 66 68 66 62 59 60 62 60
96 100 97 95 90 84 76 64 51 54 67 72 63 57 53 56 60 65 81 82 74 60 55 58 62 61 61 58 58 63 66 57 70 62 53 52 59 67 75 76 80 74 79 76 74

GFSSW_250_rhum_006.txt.gz
RH
21 17 17 16 22 23 41 41 43 54 46 45 32 33 31 30 30 28 24 29 31 31 35 40 34 35 36 38 41 42 35 34 38 40 44 43 66 46 46 98 100 100 100 100 100
23 24 20 18 24 36 59 69 74 80 60 44 45 45 41 39 38 31 28 30 35 47 50 60 61 43 41 45 52 65 58 50 50 63 52 52 58 69 94 71 100 100 100 100 100
23 25 19 19 24 60 76 76 75 68 50 50 42 42 38 36 38 33 26 34 48 57 57 65 62 56 57 56 54 65 86 83 87 76 79 65 60 67 75 100 100 100 100 100 100
29 22 19 22 28 57 67 68 59 48 42 34 27 28 34 35 36 31 30 37 55 60 67 61 59 66 63 56 68 66 86 100 100 100 99 95 71 99 92 73 99 100 100 100 100
27 23 20 24 43 65 66 54 34 26 20 18 18 18 18 19 22 26 33 46 59 60 76 69 64 65 75 84 95 100 96 99 100 100 100 100 100 100 99 100 100 100 100 100 100
24 21 20 32 63 64 48 29 18 14 14 14 14 14 15 18 22 28 40 58 64 75 76 66 64 63 80 100 100 98 87 87 98 96 100 100 100 100 100 100 100 100 100 100 100
23 18 23 64 67 58 33 18 14 14 16 15 13 14 16 20 22 29 48 63 71 69 75 80 73 92 94 97 100 92 95 96 98 100 100 100 100 100 100 99 98 92 94 100 100
23 18 39 62 68 43 21 15 15 17 18 16 15 16 17 21 27 36 47 57 64 69 78 74 80 100 99 100 86 84 91 98 90 93 95 96 98 99 100 94 88 100 100 98 100
23 22 51 57 54 26 14 15 18 17 18 17 19 22 23 26 32 38 42 50 60 75 79 78 85 76 67 61 54 74 98 99 95 83 79 76 76 74 77 76 75 73 74 82 79
19 26 53 50 25 16 14 18 17 19 20 20 19 20 39 48 46 51 54 59 61 60 67 60 65 66 61 61 59 54 60 71 80 84 78 69 64 46 46 52 54 51 44 37 32
19 38 50 27 18 14 16 17 18 19 21 24 24 27 33 46 50 52 51 46 47 38 37 41 43 44 34 31 21 18 19 17 9 12 24 40 45 42 35 16 10 9 19 23 36
21 48 43 18 14 15 16 16 17 20 21 20 19 19 21 24 27 28 26 26 32 33 32 32 28 20 11 5 4 6 6 7 12 17 14 13 12 10 16 38 61 71 76 89 94
27 51 28 15 14 14 19 16 18 17 18 17 17 16 17 17 16 16 16 18 18 15 11 9 9 9 11 14 22 22 18 15 14 13 20 32 48 83 92 93 90 86 84 75 57
39 49 17 15 15 16 17 17 17 16 16 15 13 13 13 14 14 13 8 8 7 9 11 14 13 15 16 14 20 36 41 38 42 66 88 92 80 72 63 56 50 41 33 27 25
51 39 16 16 18 16 18 18 18 19 16 14 15 14 14 19 19 26 30 28 28 28 26 29 35 40 39 52 56 56 74 72 62 48 38 38 35 30 31 23 21 20 18 18 22
55 20 17 18 20 22 18 24 27 28 36 38 44 44 53 57 44 52 60 63 68 68 70 69 59 60 66 64 59 41 25 21 19 20 28 27 25 26 24 23 24 27 29 42 47
64 13 19 20 24 34 26 37 44 50 56 60 63 64 65 67 65 59 53 48 45 38 36 44 39 37 28 18 19 21 21 24 26 27 29 28 30 32 34 42 52 52 47 43 44
66 19 35 33 48 48 47 51 54 63 59 55 68 60 46 39 35 34 26 18 20 18 16 18 17 15 16 21 23 21 20 22 25 32 35 38 45 50 50 45 42 46 50 56 59
50 34 58 64 64 60 54 62 65 70 59 54 44 28 27 26 24 24 24 24 23 24 28 26 26 24 22 26 39 49 51 48 45 40 39 39 41 42 47 49 55 61 61 57 52
32 44 72 83 69 82 72 69 62 64 44 32 27 27 29 31 39 42 40 39 35 27 25 22 22 44 55 52 46 45 41 42 42 42 42 45 47 49 53 52 50 50 47 44 40
26 51 73 80 82 85 83 73 67 58 28 31 30 29 36 48 51 48 37 28 25 21 23 42 57 53 48 46 44 42 43 50 50 52 50 54 55 52 47 43 39 37 35 34 34
43 58 85 76 92 84 82 75 62 35 26 37 35 33 38 50 59 50 29 32 28 36 60 57 50 50 55 57 58 56 54 55 56 58 56 50 45 42 41 40 39 41 45 43 42
67 75 85 97 93 80 78 74 49 41 42 37 33 40 52 58 54 44 47 52 55 63 59 50 57 64 67 67 65 59 59 63 64 56 49 48 47 45 42 44 44 51 51 47 44
58 70 91 91 80 76 77 79 51 56 50 35 36 46 53 52 57 58 63 59 54 62 58 55 59 66 71 72 66 61 61 60 59 53 54 48 49 49 49 48 51 53 57 65 64
59 85 100 79 82 75 66 72 62 55 50 36 42 48 56 66 72 64 61 69 66 64 62 66 71 73 75 72 64 63 64 62 57 54 53 46 54 53 55 52 55 60 48 57 66
75 100 100 79 84 72 72 74 60 57 58 43 49 56 58 76 87 86 86 85 82 79 85 86 84 76 64 62 64 71 70 66 60 62 64 70 70 70 61 50 61 75 67 54 61
96 100 98 85 82 74 64 69 69 68 64 51 54 61 64 70 76 91 100 100 97 100 98 89 78 68 70 67 69 78 61 67 65 73 74 87 68 73 54 55 80 84 80 70 71

GFSSW_250_rhum_009.txt.gz
RH
37 34 28 21 21 22 20 19 22 41 58 53 52 43 32 22 26 28 23 25 31 30 31 31 27 25 33 32 38 50 51 53 46 39 36 33 39 36 40 45 73 55 94 100 100
42 40 34 26 22 20 20 22 28 44 55 66 57 38 33 36 34 36 34 41 46 47 48 48 54 56 50 49 54 74 88 81 62 72 84 53 55 59 66 68 86 96 100 100 100
43 46 39 24 24 21 19 22 33 58 64 63 46 50 38 34 31 41 41 49 54 55 48 54 67 78 76 85 92 91 97 98 96 83 88 89 79 72 80 81 77 100 76 100 100
38 41 38 25 23 22 20 28 48 58 57 44 38 39 39 36 38 40 39 52 55 52 56 69 93 94 94 97 89 89 100 100 100 100 100 99 86 86 86 72 78 84 79 88 100
37 38 40 28 26 22 28 53 58 47 33 24 21 22 23 26 37 38 42 51 52 50 65 90 90 94 95 85 91 100 100 100 100 100 100 100 98 90 90 84 74 95 93 98 100
36 40 41 29 27 25 36 57 49 32 21 16 14 15 15 18 21 33 41 38 38 53 75 80 91 81 88 100 100 100 99 100 100 100 100 100 100 100 98 97 88 87 87 99 98
34 42 39 31 27 27 41 49 33 22 16 13 13 16 16 16 18 21 25 29 36 51 75 97 90 93 100 100 100 100 96 100 100 100 100 95 97 100 100 100 100 100 100 100 100
36 39 40 36 24 35 46 43 24 16 15 15 17 16 15 17 19 22 25 31 39 61 72 90 86 83 92 100 98 89 98 100 100 100 97 97 100 100 100 100 100 100 100 100 97
36 40 37 33 25 41 41 26 17 16 18 19 19 16 17 19 22 27 29 38 56 66 82 89 75 84 87 94 94 96 100 87 94 100 100 97 98 96 95 94 96 97 100 99 96
37 40 32 31 25 38 24 17 15 19 18 20 19 22 22 23 27 33 45 54 76 82 84 93 99 94 79 74 74 95 97 99 100 100 100 93 91 86 80 76 65 57 66 70 69
36 45 29 27 25 28 16 14 18 17 18 19 21 22 24 29 32 38 43 49 56 61 71 79 79 76 81 82 79 90 94 88 87 81 73 66 59 56 68 67 61 43 33 21 12
37 46 31 21 31 19 15 16 17 16 19 21 21 23 33 50 55 61 62 66 64 64 64 65 81 83 84 78 66 61 36 22 19 15 12 10 12 18 21 24 28 28 24 20 30
39 44 29 20 28 16 15 16 16 20 22 24 26 26 30 41 50 51 55 56 56 50 38 36 39 41 38 34 26 12 5 4 8 10 9 9 9 16 29 23 24 44 62 71 73
45 39 25 31 19 16 15 18 17 20 20 20 20 19 20 21 23 25 24 25 24 25 29 30 27 19 11 7 7 10 16 17 16 18 42 76 95 99 90 76 70 52 29 25 22
49 38 22 31 17 16 17 18 18 17 18 19 17 17 16 15 15 14 15 14 15 13 12 9 10 11 14 16 17 17 29 46 69 96 93 80 65 59 51 39 22 19 20 28 33
52 33 25 22 19 17 19 17 17 18 18 16 18 16 14 16 15 14 13 11 11 12 14 15 18 21 22 30 29 48 76 77 42 27 32 26 21 18 18 22 25 31 42 51 55
50 30 35 24 18 18 18 19 19 20 20 28 32 38 33 43 39 34 33 29 32 43 59 62 61 63 54 59 60 48 36 22 18 19 19 21 22 24 30 36 51 58 51 51 50
50 28 51 42 19 21 18 21 25 36 44 59 56 58 66 59 65 62 57 62 55 52 61 57 49 35 38 32 17 18 22 22 23 26 31 36 44 52 56 52 52 58 60 61 64
45 31 66 45 19 34 29 39 45 60 59 59 66 72 72 62 60 53 36 26 28 22 19 17 16 19 24 24 23 26 34 47 59 63 59 57 55 55 57 55 54 58 60 50 38
36 35 68 43 27 46 52 58 57 55 57 62 66 54 42 34 28 24 23 20 20 20 23 24 27 27 26 36 48 51 48 48 49 48 49 48 49 52 52 54 51 45 39 36 36
34 50 78 48 45 60 68 62 58 68 56 55 35 26 26 25 28 34 34 35 36 35 29 28 27 42 52 48 45 44 41 40 41 44 47 51 54 49 47 44 40 40 41 43 47
32 72 87 59 66 71 80 67 68 63 46 38 29 28 30 41 51 59 58 46 35 28 25 41 49 45 45 47 51 54 54 51 51 54 60 56 51 47 43 44 46 47 48 51 55
42 81 83 62 85 81 93 77 66 66 35 32 31 32 36 53 70 71 58 43 34 36 59 57 50 48 55 61 62 63 59 58 60 60 63 60 57 56 56 56 54 53 56 51 48
48 67 60 80 84 90 93 83 75 57 30 32 36 33 38 53 62 67 48 43 46 56 65 55 55 60 65 69 72 69 62 60 61 61 59 56 64 67 72 71 61 59 61 56 53
65 78 74 98 84 99 89 82 72 53 34 36 39 37 48 59 67 62 64 72 76 67 73 61 58 64 71 76 77 75 71 68 73 71 70 63 65 59 79 81 71 65 61 49 66
81 100 99 98 84 96 86 79 76 54 35 38 37 42 53 62 64 69 69 80 84 80 73 70 74 78 82 82 84 92 90 74 76 68 67 73 80 59 70 86 70 70 60 62 71
99 100 100 93 79 91 80 73 86 55 46 46 38 42 58 65 77 81 86 92 92 87 83 83 90 91 94 96 92 100 78 81 76 75 73 84 73 71 82 81 89 75 62 77 70

GFSSW_250_rhum_015.txt.gz
RH
65 53 42 27 27 32 35 32 31 24 30 29 26 24 46 52 56 45 49 44 38 30 26 21 24 30 40 41 31 28 30 26 21 23 30 44 16 20 14 12 38 100 98 35 21
76 58 49 38 35 38 41 32 27 25 28 31 29 26 46 44 39 39 42 46 54 40 34 44 29 35 58 50 47 47 52 39 38 69 99 41 38 36 36 39 29 60 66 74 98
79 63 54 43 33 34 40 35 34 24 29 32 28 27 38 34 24 26 34 38 46 41 42 53 57 50 68 74 56 47 55 48 65 64 96 67 65 81 75 88 77 80 81 84 60
76 75 59 48 38 34 34 33 38 32 38 28 27 26 29 22 18 19 32 45 42 51 51 53 70 74 68 55 64 80 100 80 100 100 100 97 100 100 99 100 100 100 100 100 80
68 71 56 48 53 48 37 38 36 32 36 32 27 25 20 15 14 15 28 41 47 55 55 64 53 70 76 82 100 100 100 95 100 100 100 100 100 100 90 88 100 100 100 100 100
74 77 67 46 52 43 43 45 43 35 38 31 26 24 14 13 14 14 23 41 53 72 77 76 77 98 97 100 98 100 100 100 100 100 97 98 95 93 96 83 83 78 81 91 99
68 72 60 54 47 50 44 48 44 42 35 35 26 20 13 15 16 15 20 29 48 69 80 87 94 94 97 100 100 100 100 100 100 100 96 98 100 100 99 100 97 100 100 99 92
67 62 56 50 54 49 51 49 42 44 40 33 26 16 16 18 16 16 18 32 53 72 78 86 96 100 100 100 100 100 100 100 100 100 100 100 100 100 98 98 97 97 88 99 92
84 77 55 56 54 45 54 50 51 40 43 31 26 17 19 19 15 17 19 39 63 74 76 76 88 99 100 100 100 100 100 100 100 100 100 100 99 100 100 100 100 100 97 100 96
66 71 54 53 54 48 53 56 58 48 41 32 23 18 21 18 19 19 21 42 62 57 51 78 100 100 100 100 100 100 100 100 100 100 86 99 100 100 88 92 93 99 100 97 100
58 68 56 50 49 51 53 77 70 51 36 36 20 18 22 19 20 22 23 32 38 43 64 100 100 100 100 100 100 100 100 86 90 100 100 100 100 85 93 97 90 89 100 96 97
69 68 60 51 50 47 66 69 65 49 44 37 18 18 23 21 23 27 29 31 39 64 100 100 100 100 100 100 100 99 100 100 100 100 96 95 93 92 92 99 96 94 93 90 85
62 66 64 59 45 46 64 66 57 46 41 34 17 20 22 22 26 32 50 66 80 99 99 100 100 100 100 100 96 100 100 100 100 100 100 95 89 90 89 86 75 42 20 17 18
69 68 68 61 47 57 68 57 50 46 40 29 18 23 21 27 37 35 46 86 95 100 98 99 100 100 94 99 100 100 100 100 98 91 79 65 44 21 17 13 12 14 20 22 38
73 73 71 58 59 67 88 61 43 49 43 25 19 24 25 27 54 52 44 55 88 100 100 100 100 100 100 99 97 97 95 96 74 44 29 6 12 17 30 35 76 68 76 73 56
67 67 60 57 56 88 92 77 40 52 62 25 19 21 20 22 37 59 61 60 54 61 89 95 95 90 80 84 87 76 62 45 24 8 9 23 27 38 61 71 56 41 28 24 35
52 48 59 52 71 82 89 75 59 42 53 24 19 18 18 17 19 29 49 54 65 69 72 68 46 30 27 31 33 29 15 11 13 17 27 59 72 52 29 27 24 24 38 44 39
46 46 57 51 76 87 78 84 57 56 59 21 19 18 15 14 15 17 18 25 31 34 27 24 23 22 20 15 11 11 14 29 49 69 70 34 27 24 26 29 42 41 36 39 45
46 49 56 72 76 93 78 89 66 71 51 20 18 16 13 12 13 14 14 13 13 15 17 18 17 16 19 36 53 62 67 71 63 38 26 29 48 47 42 40 38 40 46 50 48
48 48 77 89 85 99 94 91 67 59 33 21 18 16 15 16 16 17 18 21 22 26 28 30 49 68 79 88 73 63 39 32 28 33 53 57 50 47 45 48 54 54 58 56 55
68 52 88 100 100 100 99 88 66 42 22 26 27 34 32 44 60 56 58 55 59 59 60 64 62 57 56 50 33 28 31 52 64 62 52 47 46 54 62 65 67 64 60 57 54
44 81 96 100 100 100 100 100 49 36 27 46 55 65 70 76 65 57 46 33 32 23 22 24 25 25 26 30 32 46 65 68 63 56 57 63 72 69 70 68 68 69 69 69 70
70 100 100 100 99 100 100 95 34 29 50 70 70 66 66 58 45 35 28 22 21 26 35 35 33 35 37 47 67 68 66 65 65 68 76 72 74 72 74 68 62 58 60 60 63
80 96 84 95 100 97 62 36 38 33 74 71 69 61 51 30 28 29 34 40 49 48 42 43 39 42 54 69 72 66 66 70 72 72 75 67 62 57 59 59 56 60 61 62 66
68 71 89 100 82 43 44 43 35 59 82 69 58 52 36 27 37 46 50 53 47 42 36 35 39 68 73 65 65 71 75 74 70 68 73 58 64 46 66 75 68 72 72 75 79
48 47 77 53 42 71 48 44 49 86 80 60 49 46 30 36 44 54 58 59 46 37 34 47 75 74 63 64 73 84 82 74 72 76 78 67 86 43 46 54 63 72 77 74 72
39 43 31 43 60 43 44 58 77 98 70 56 50 39 32 38 46 55 56 58 45 38 55 77 76 65 65 71 79 84 77 76 70 67 60 70 72 56 61 65 72 73 70 75 81

GFSSW_250_rhum_021.txt.gz
RH
97 100 100 100 79 66 59 48 36 33 36 27 28 29 35 37 37 22 12 11 12 15 20 24 27 34 33 44 36 33 45 33 20 13 12 26 32 26 17 51 58 38 47 94 100
95 100 100 100 87 80 63 46 44 28 33 34 29 32 34 38 37 19 14 12 12 14 18 23 34 35 42 94 72 78 55 23 13 17 42 44 69 79 47 65 70 99 96 100 100
100 100 100 100 100 95 57 52 39 30 32 31 27 33 36 38 35 16 15 14 13 13 20 29 38 39 69 100 100 100 70 37 39 99 100 90 100 100 69 67 74 99 100 100 100
100 100 100 100 100 91 44 42 48 38 28 28 28 35 35 38 39 15 16 15 14 14 26 38 42 52 91 100 100 97 73 56 96 100 100 100 100 98 50 50 64 100 100 100 100
100 100 100 100 100 79 49 36 32 31 27 27 32 41 33 42 36 14 16 16 15 16 32 45 47 50 97 100 99 94 100 84 100 100 100 100 100 100 100 62 78 100 100 100 100
100 100 100 100 100 77 64 34 38 30 27 28 29 40 30 44 34 14 18 16 16 19 43 47 63 83 95 97 100 100 94 93 100 100 100 100 100 100 100 99 96 86 99 100 100
100 100 100 100 97 87 52 49 46 33 28 29 29 39 34 42 31 14 19 19 18 22 49 62 80 100 100 100 100 99 99 100 100 100 100 100 100 100 100 100 82 86 100 100 100
100 100 100 100 99 77 45 45 40 26 28 33 34 38 33 43 33 16 20 21 19 22 46 64 74 100 100 97 100 100 100 92 100 100 77 100 100 100 99 70 98 96 97 93 99
100 100 100 100 96 77 54 42 28 26 28 33 39 38 32 43 36 18 21 23 21 36 53 69 88 95 99 100 89 100 100 100 94 75 81 90 90 100 98 67 80 100 100 100 100
100 100 100 100 98 74 64 35 26 30 31 38 43 35 31 43 37 18 21 26 25 49 62 73 98 99 100 92 100 100 100 100 100 100 100 91 94 100 100 100 100 100 93 96 92
100 100 100 100 92 62 61 29 27 27 34 49 51 38 31 39 40 20 21 27 29 43 73 73 91 100 99 100 100 100 100 100 98 77 100 96 83 86 99 100 100 100 100 100 95
100 100 100 100 69 74 52 32 32 27 31 45 47 33 35 40 44 21 24 30 33 44 60 88 81 88 99 92 100 91 90 100 89 89 80 100 100 98 93 96 92 100 100 100 88
100 100 100 99 89 71 54 40 38 29 31 41 42 40 34 42 46 23 27 33 40 37 50 52 71 80 92 90 86 100 97 100 100 100 100 78 100 100 90 96 96 93 100 96 82
100 100 100 92 85 69 48 41 43 33 33 45 43 50 37 40 49 23 26 33 41 55 41 39 45 78 81 79 77 94 83 87 94 95 98 88 96 99 100 100 100 95 96 84 88
100 100 93 74 70 48 44 39 42 35 30 42 53 46 53 44 42 21 21 30 46 64 74 66 78 90 83 85 78 81 100 100 100 88 91 77 84 68 76 74 60 79 78 67 45
87 72 59 61 61 46 41 38 44 28 31 38 50 53 47 34 52 24 20 25 48 49 83 89 94 97 100 96 99 100 86 74 79 100 98 71 58 96 74 76 52 22 45 31 37
75 62 42 45 45 52 52 42 40 30 24 40 48 53 55 52 52 30 20 21 34 57 76 76 86 98 87 82 96 100 89 96 99 86 81 90 85 75 59 21 52 65 54 30 37
76 67 46 41 47 56 53 46 41 38 29 37 58 58 53 54 44 34 18 21 26 42 51 62 92 93 97 100 99 78 71 89 99 98 100 94 82 50 26 47 80 85 81 55 71
60 78 61 62 60 50 52 56 49 46 33 50 57 63 60 52 50 42 18 19 21 24 34 40 62 87 88 86 90 82 91 86 85 83 62 55 20 28 60 79 65 94 100 100 68
52 55 68 62 70 59 50 53 49 40 40 63 68 60 62 39 51 42 20 18 18 21 27 41 52 59 59 63 66 72 54 33 32 35 32 54 75 58 69 49 37 33 49 86 100
51 72 66 46 48 49 52 60 58 32 49 78 66 62 70 38 43 68 22 22 21 17 22 24 53 54 50 48 38 28 25 22 21 40 74 82 86 51 48 34 33 50 47 44 45
74 100 96 72 60 56 53 64 65 34 47 72 73 70 58 40 35 40 25 40 38 35 21 21 26 31 22 27 26 21 19 26 56 71 75 57 38 32 48 52 52 39 48 45 41
48 79 100 71 73 73 69 63 47 55 74 78 76 54 69 54 47 42 28 61 54 59 75 58 70 48 47 52 32 45 81 99 93 66 36 29 30 50 54 54 58 53 41 44 46
51 73 74 74 66 60 60 67 68 69 72 67 74 63 71 60 46 49 38 62 75 67 67 71 80 93 82 69 71 78 76 66 43 30 25 48 54 65 44 55 60 54 50 37 37
59 60 64 53 53 72 68 85 71 56 79 94 53 70 85 44 55 31 43 62 73 62 52 46 46 43 35 30 35 33 28 23 23 28 58 58 57 56 55 63 65 68 64 57 80
22 38 40 59 55 49 57 67 66 58 78 62 59 65 58 52 65 41 54 71 59 48 37 29 24 23 23 23 25 25 31 28 34 51 61 43 64 51 56 64 69 60 41 54 71
18 34 44 55 51 42 59 89 84 92 84 96 82 82 74 64 60 44 70 66 46 31 29 34 42 45 46 39 39 42 25 40 66 54 50 55 60 69 61 72 82 84 84 75 66

GFSSW_250_rhum_024.txt.gz
RH
100 100 100 100 98 87 100 94 100 66 56 40 26 21 24 24 24 28 25 14 14 14 12 13 17 23 29 45 28 58 62 61 21 11 11 12 13 14 18 24 19 16 16 19 27
100 100 100 100 98 78 100 95 100 52 56 43 41 31 24 24 24 28 26 15 15 13 12 13 20 23 32 47 54 100 100 26 12 20 42 48 52 80 75 35 38 22 28 56 100
80 100 100 100 98 89 100 100 84 55 68 44 40 37 22 24 25 27 26 14 16 13 13 16 26 30 46 53 76 100 71 25 25 45 83 82 100 100 63 46 24 57 98 100 100
100 100 100 100 98 100 100 100 84 79 79 48 34 27 23 23 29 28 24 14 18 14 15 28 35 39 46 60 100 77 77 72 61 100 100 100 100 100 82 74 86 100 100 100 100
100 100 100 100 100 100 100 100 94 81 64 61 40 25 24 29 26 30 22 16 19 15 19 36 44 50 50 79 100 80 63 99 100 100 100 100 100 99 89 94 100 100 100 100 100
97 100 100 100 100 100 100 100 100 73 78 52 41 24 25 32 33 29 22 17 21 17 23 44 49 54 80 100 100 77 97 100 100 100 100 100 100 95 78 98 100 100 100 100 100
93 100 100 100 100 100 100 100 100 93 76 62 44 25 23 35 37 29 22 18 22 18 27 49 59 56 92 100 100 99 100 100 100 100 100 98 100 78 70 89 100 100 100 100 100
100 100 99 100 100 100 100 100 100 85 84 63 45 28 21 30 37 29 27 20 23 21 39 60 76 71 92 99 100 100 100 100 100 100 100 92 85 89 68 79 99 100 100 100 100
100 100 100 100 100 100 100 100 100 91 92 63 47 34 24 26 31 31 28 20 23 24 42 63 67 96 85 98 97 100 100 100 100 100 100 100 100 100 90 79 74 78 87 100 100
100 100 100 100 100 100 100 90 100 98 88 67 52 38 28 23 33 30 33 20 26 28 39 71 74 96 100 94 100 99 100 100 100 100 100 100 100 100 100 100 91 78 85 100 100
100 100 100 100 96 96 100 87 96 91 96 74 55 44 34 26 35 31 33 19 29 37 43 62 82 86 96 96 100 97 81 94 100 100 100 100 100 100 100 100 92 81 92 100 100
100 100 100 100 100 100 100 100 98 98 95 76 56 40 32 27 36 30 38 21 26 42 44 66 74 85 78 85 92 91 94 100 100 100 99 79 99 100 100 100 100 76 78 97 89
100 100 100 100 100 100 100 100 100 98 100 79 52 37 29 24 36 30 46 23 21 44 48 57 79 68 84 87 92 96 100 100 100 100 87 90 100 100 100 100 100 100 97 58 72
100 100 100 100 100 100 100 100 100 98 100 73 52 35 30 23 39 30 44 30 18 37 50 56 74 56 60 86 100 100 100 96 98 100 99 100 89 95 88 88 90 100 100 100 100
100 100 100 100 100 100 100 100 100 100 97 68 48 35 30 24 30 32 61 35 17 22 50 64 67 56 62 91 90 97 100 100 98 100 95 80 90 75 86 99 99 87 100 100 100
56 100 100 100 100 100 100 100 100 94 91 62 46 33 33 25 32 36 55 47 20 19 34 50 74 86 91 90 81 81 87 76 90 96 71 79 79 83 92 94 92 93 96 100 84
56 81 100 100 100 100 100 100 98 78 66 55 52 38 40 29 40 43 55 47 23 18 24 49 65 99 95 83 96 91 80 81 88 88 86 100 81 77 83 74 76 70 76 59 36
73 78 100 100 100 100 100 99 87 65 52 48 50 47 41 30 39 48 63 41 26 18 18 27 56 94 98 94 97 92 100 100 93 74 73 79 76 74 70 81 72 46 16 12 33
70 75 81 100 99 97 94 91 98 69 53 43 42 50 44 31 39 52 60 40 29 18 18 19 37 46 72 78 80 82 66 69 77 72 75 80 80 100 85 44 22 26 22 39 49
74 84 79 84 69 83 86 77 91 83 60 55 42 43 41 32 42 45 56 53 31 20 17 15 23 27 36 58 67 81 90 93 100 100 85 63 62 47 30 32 56 75 54 44 36
95 95 90 70 63 54 72 72 95 91 59 48 57 55 47 34 43 48 52 53 46 24 20 14 15 17 21 36 53 56 64 65 67 58 30 31 26 19 15 32 66 51 40 46 46
100 92 99 73 67 80 49 71 98 77 67 63 60 53 50 35 37 57 40 48 59 31 27 18 17 17 18 32 42 37 24 34 30 27 23 14 14 26 43 61 48 58 70 60 56
100 100 100 62 79 94 94 69 89 68 72 62 64 52 45 40 43 52 37 55 56 34 38 37 35 29 20 29 27 32 23 25 24 23 52 48 49 60 49 29 44 61 63 64 64
77 69 93 56 81 99 100 73 92 73 82 74 73 57 52 47 63 53 46 45 50 37 38 54 55 51 61 54 56 74 76 78 80 77 73 79 67 45 27 55 58 47 50 53 55
46 58 71 92 98 100 100 86 99 68 91 69 70 64 72 64 56 68 51 40 45 34 40 69 65 58 60 58 62 71 66 70 63 60 59 37 31 21 54 61 68 70 53 48 43
24 40 59 97 100 95 99 100 78 100 100 100 76 85 80 73 89 75 61 52 48 38 50 62 67 47 39 35 30 25 26 22 24 24 27 23 34 41 72 87 90 68 67 75 78
18 29 77 84 96 94 98 100 94 100 100 92 74 74 81 85 72 67 91 59 61 42 59 65 55 41 31 24 24 34 28 31 30 29 36 43 74 74 68 66 69 77 80 75 61

GFSSW_250_rhum_027.txt.gz
RH
100 100 100 100 89 93 100 100 100 95 100 100 82 75 50 57 48 36 29 19 16 16 13 15 13 13 14 18 31 44 33 16 17 16 26 17 15 16 16 27 26 39 40 18 14
100 100 100 100 78 90 91 100 100 100 100 100 91 86 52 63 49 39 29 18 17 16 14 16 14 18 19 20 33 44 20 23 61 54 45 25 24 28 25 51 51 48 18 17 17
100 100 100 100 99 94 100 100 100 100 100 100 92 87 66 61 58 42 31 22 16 16 17 16 18 28 31 26 34 38 43 44 73 92 93 78 44 60 82 39 20 22 26 23 39
100 100 100 100 100 92 97 100 100 100 100 100 100 97 68 65 63 42 33 24 18 16 18 18 23 30 36 39 51 50 90 84 98 100 100 100 100 100 36 36 39 59 51 100 100
72 87 100 100 100 97 66 87 98 100 100 100 100 83 67 71 66 49 37 26 18 17 20 21 31 36 41 60 64 77 98 100 100 100 100 100 100 98 68 86 58 100 100 100 100
100 100 100 100 100 93 59 82 88 100 100 100 100 100 74 82 62 48 36 25 19 18 24 24 41 50 50 48 89 92 100 100 100 100 100 100 100 72 82 98 96 100 100 100 100
100 100 100 100 100 100 81 84 99 100 100 100 100 99 76 86 67 50 36 26 19 19 29 26 49 62 59 77 85 83 100 100 100 100 100 100 94 75 99 100 100 100 100 100 100
100 100 100 100 100 100 100 100 90 100 100 100 99 70 85 89 70 53 35 26 19 19 30 27 50 64 72 93 89 100 100 100 100 100 100 100 100 88 100 100 100 100 100 100 100
100 100 100 100 91 100 70 70 100 100 100 100 73 62 96 88 71 51 36 28 20 20 28 28 43 58 76 100 96 89 100 100 100 100 100 100 100 92 100 100 100 100 100 100 100
100 100 100 100 100 86 87 80 98 77 76 68 73 62 96 93 74 54 36 27 19 20 21 33 41 62 69 80 100 100 100 100 100 100 96 100 100 99 100 100 100 100 100 100 100
64 98 100 100 92 100 82 83 96 98 100 100 95 78 81 91 76 54 35 25 23 20 19 36 38 71 77 76 100 100 100 100 100 100 100 99 100 97 90 100 100 100 100 100 100
55 74 88 78 90 100 98 95 100 100 100 100 95 77 99 94 73 50 33 24 26 22 19 35 44 46 83 99 88 100 100 100 100 100 98 88 78 94 68 67 76 75 87 83 90
68 67 59 77 52 100 85 100 100 100 100 100 91 99 100 93 70 42 32 25 24 25 19 37 50 45 66 88 95 97 100 100 100 100 100 100 98 100 100 91 75 85 75 73 65
90 89 61 79 80 99 99 100 100 100 100 100 97 100 100 96 70 40 36 29 27 25 19 32 51 58 65 76 86 77 82 100 99 100 100 100 100 94 96 93 94 84 70 70 79
75 71 54 82 88 100 100 100 100 100 100 99 100 100 100 91 63 44 40 28 28 27 22 21 45 58 63 60 88 99 83 80 79 91 97 90 83 88 100 100 93 94 96 99 100
56 45 45 80 100 100 100 100 100 100 100 100 100 100 100 82 57 42 31 32 31 28 25 18 30 55 75 79 84 100 100 98 81 99 99 84 81 96 100 100 99 97 98 76 61
40 44 35 73 99 96 100 100 100 100 100 100 100 100 99 74 50 39 29 28 33 28 28 18 18 50 64 64 85 91 100 100 99 70 71 77 77 73 76 88 84 94 100 87 83
61 43 38 54 71 56 82 100 100 100 100 100 100 100 82 69 51 41 28 27 36 31 30 20 18 32 59 59 70 84 94 100 100 91 77 74 64 61 79 87 87 91 95 91 85
100 59 55 61 66 61 80 84 99 100 100 100 100 100 96 80 61 47 38 25 33 32 27 28 16 17 24 54 69 65 71 86 92 76 65 73 75 77 81 83 77 67 80 78 58
91 80 84 94 89 79 76 78 82 100 100 100 100 100 98 81 67 51 45 28 31 35 30 29 20 17 22 29 38 60 76 64 72 76 76 72 82 79 79 80 68 45 27 21 43
90 83 99 100 75 74 89 71 92 100 97 100 99 95 92 87 68 57 57 37 32 38 29 25 27 24 19 19 19 37 58 70 74 84 81 85 93 86 52 37 37 21 24 58 59
66 79 100 100 67 87 100 100 94 100 92 87 99 95 93 80 78 71 58 42 34 34 33 28 30 32 22 17 21 26 36 56 76 56 64 72 55 29 26 22 19 47 67 62 36
42 68 100 100 82 100 100 100 100 100 100 96 92 92 89 97 94 73 56 51 38 38 32 33 30 33 48 30 19 17 26 31 26 22 36 33 18 18 34 51 72 80 50 40 46
32 53 92 59 100 100 100 100 100 100 100 100 97 88 82 92 94 78 70 56 41 39 37 37 36 33 39 43 47 33 20 27 50 43 35 40 45 57 86 85 50 47 79 71 68
23 31 74 87 100 100 100 100 100 100 100 97 90 93 85 94 100 97 74 57 42 44 42 44 41 39 46 56 58 62 62 57 60 55 56 58 69 56 67 59 44 70 84 72 58
17 29 33 99 100 85 100 100 100 100 100 100 100 100 86 100 100 93 72 61 47 54 44 39 42 44 56 67 63 52 37 32 29 21 25 29 27 27 28 30 40 62 68 67 77
12 24 36 100 100 84 99 100 100 100 100 100 100 100 100 100 99 92 78 62 50 64 52 34 42 36 62 65 60 35 27 20 25 30 34 35 32 31 32 40 65 62 62 71 71

GFSSW_250_rhum_030.txt.gz
RH
100 100 100 100 100 100 100 100 100 98 78 77 82 98 100 100 100 97 81 54 30 20 18 19 15 18 20 25 27 20 26 42 48 35 34 32 40 25 18 16 17 24 18 26 52
96 100 100 100 100 100 100 100 100 99 92 76 83 97 100 100 100 96 77 52 27 23 20 19 16 19 24 30 33 25 37 49 56 64 51 57 47 33 27 22 27 33 20 14 18
87 100 100 100 100 100 100 100 100 99 100 85 85 93 100 100 100 92 74 48 30 26 22 20 16 23 31 34 28 38 56 64 70 81 76 86 77 64 60 46 53 23 14 25 35
82 82 82 74 89 86 67 73 100 100 100 80 77 78 100 100 100 96 76 45 32 29 24 20 16 25 38 36 36 64 76 71 97 100 100 100 94 96 50 47 42 41 29 38 41
78 76 77 71 75 72 82 100 100 100 100 92 76 93 100 100 100 88 65 39 37 32 27 20 18 28 39 35 56 80 88 89 98 100 100 100 97 59 67 71 49 45 38 61 100
100 99 88 85 66 61 62 65 88 100 100 89 66 96 100 100 100 81 54 46 40 30 34 19 19 31 43 52 68 84 96 94 100 99 97 100 99 100 97 77 75 91 100 100 100
100 100 100 100 100 100 100 95 100 100 96 88 67 100 100 99 74 53 49 52 43 34 33 20 20 34 46 59 74 92 100 100 100 100 100 100 95 92 100 100 100 100 100 100 100
94 94 98 100 100 100 100 100 100 100 86 77 78 72 100 86 72 69 64 48 39 40 30 21 21 37 49 61 84 96 100 90 100 100 100 93 98 100 100 100 100 100 100 100 100
44 55 78 97 97 100 100 100 100 100 98 91 85 90 95 93 86 66 70 46 39 40 30 23 20 39 54 70 94 98 85 87 100 93 93 82 100 100 100 100 100 100 100 100 100
53 50 62 79 80 79 99 98 100 100 100 96 92 100 100 100 88 74 65 49 44 42 28 24 20 41 61 68 98 95 86 82 96 85 96 99 100 100 100 100 100 100 100 100 100
66 66 64 76 75 74 85 94 100 100 100 100 100 100 100 100 80 75 59 56 45 40 28 24 19 46 41 76 89 100 100 100 100 88 84 94 100 100 100 100 100 100 100 100 100
82 75 83 73 72 70 67 83 85 83 100 91 100 100 100 97 61 85 68 68 50 38 27 22 20 43 43 66 86 100 100 98 97 99 76 79 94 100 100 100 100 100 100 100 100
100 100 100 100 100 84 83 100 92 74 70 100 100 87 100 56 80 100 82 70 58 37 28 21 22 26 48 51 76 88 99 99 89 97 74 80 92 99 100 98 99 100 93 97 98
100 100 100 100 100 100 93 86 87 93 82 100 100 93 100 93 100 82 93 78 55 35 28 21 21 20 47 54 63 84 88 100 100 100 99 68 75 100 99 90 89 81 91 95 85
82 98 100 100 98 75 98 100 90 91 81 98 92 98 100 96 84 70 98 80 51 37 30 22 22 19 48 55 63 74 93 99 100 100 100 98 94 84 68 65 64 62 75 74 68
50 52 70 72 68 73 83 86 81 65 68 82 93 100 98 87 95 99 100 79 51 43 35 26 20 22 29 49 58 73 81 95 99 94 93 99 100 96 73 72 75 79 86 94 90
26 24 26 32 32 32 56 70 76 65 54 100 100 100 100 94 100 99 100 74 58 49 38 31 20 26 19 37 46 75 91 96 95 100 100 100 98 84 91 82 76 85 78 67 68
25 23 22 28 30 30 53 42 54 63 65 66 100 100 97 59 99 100 100 83 69 57 43 32 23 22 25 21 36 58 71 77 81 84 83 94 98 91 100 94 79 72 69 69 74
25 25 24 31 32 40 59 40 56 60 63 99 100 100 86 76 100 100 100 91 75 67 55 34 28 23 27 19 22 28 64 74 75 80 80 84 78 68 84 87 90 90 86 82 75
23 27 30 35 52 57 51 47 71 74 80 100 100 100 96 94 95 100 100 100 83 70 60 39 30 27 26 23 17 22 38 78 85 76 76 82 85 70 73 95 100 100 100 100 99
20 21 28 37 52 34 48 68 96 100 73 100 100 100 96 88 100 100 100 95 80 65 60 41 31 28 28 25 18 19 30 55 69 93 91 87 95 84 82 89 90 98 99 68 62
14 17 29 63 40 43 68 99 100 100 84 91 100 100 100 100 98 100 100 99 88 72 73 48 41 29 29 25 21 18 16 30 45 84 91 94 100 100 93 90 100 90 38 37 42
9 14 24 36 25 52 100 98 100 100 90 95 100 100 100 100 94 100 100 100 98 91 73 57 42 33 33 27 23 32 28 19 27 41 56 61 54 42 78 90 56 28 26 30 73
7 10 18 25 29 56 89 100 100 100 100 100 100 100 100 100 82 100 97 98 96 82 71 63 50 30 36 27 28 57 48 45 24 28 41 30 25 30 47 48 74 90 84 72 55
5 6 12 17 21 67 98 100 100 100 100 100 100 100 100 100 98 96 97 96 91 70 72 61 52 32 36 27 27 64 62 62 63 66 74 65 79 64 72 93 100 99 88 64 42
4 6 9 18 44 59 100 100 100 100 100 100 100 100 100 100 100 100 100 98 91 82 78 60 56 36 39 32 27 36 69 49 49 46 52 56 42 25 27 41 60 61 48 35 29
3 6 7 18 23 41 73 100 100 100 100 100 100 100 100 100 100 100 100 100 96 89 71 76 61 44 45 38 31 54 48 56 50 30 26 25 26 27 26 27 30 31 31 41 70